User: anonymous
Location: Waning Moon II Observatory
(30.3730°N, 89.7620°W)
Time: 05:09:54
(UTC-05:00)
Language:

Cosmos 1825 Rocket - Orbit

View from above orbital plane
View from above orbital plane
View from above satellite
View from above satellite

Ground track
Ground track

The orbit data is extracted from the following two-line orbital elements,

1 17567U 87024B   14105.85726556  .00000511  00000-0  59738-4 0  3247
2 17567 082.5317 202.7611 0019307 201.6058 298.1106 14.83032779464741
Epoch (UTC): 15 April 2014 20:34:27
Eccentricity: 0.0019307
inclination: 82.5317°
perigee height: 606 km
apogee height: 633 km
right ascension of ascending node: 202.7611°
argument of perigee: 201.6058°
revolutions per day: 14.83032779
mean anomaly at epoch: 298.1106°
orbit number at epoch: 46474

The dashed part of the orbit path shows where the satellite is in the earth's shadow,  

DLR